SCP
0 0 0 0 0 0 -0 -0 -0 -0 0 0 -0 -0 0 0 0 0 0 0 0 -0 0 -0 0 0 0 -0 0 -0 -0 0 0 0 -0 -0 -0 0 0 0 0 0 0 0 0 0 0 0 0
0 0 1 0 0 -0 -0 0 0 0 0 -0 -0 -0 0 0 0 0 0 0 0 0 0 -0 0 0 0 0 0 -0 0 -0 0 0 -0 -0 0 0 0 0 0 0 0 0 0 0 0 0 0
0 0 0 0 0 0 0 0 0 -0 0 -0 0 0 0 0 0 0 0 0 0 0 0 -0 0 0 0 0 -0 -0 -0 0 0 0 0 -0 -0 0 0 0 0 0 0 0 0 0 0 0 0
0 0 0 0 0 0 0 0 0 0 0 -0 0 0 0 -0 0 0 0 0 0 0 0 0 0 -0 -0 0 0 -0 -0 0 0 0 0 -0 -0 0 0 0 0 0 0 0 -0 0 0 0 0
0 1 0 0 0 0 0 0 0 0 0 0 0 0 0 0 -0 0 0 -0 0 0 0 0 0 -0 -0 -0 0 -0 0 0 0 -0 -0 0 -0 0 0 0 0 -0 0 0 0 -0 -0 0 0
1 1 0 0 0 0 0 0 0 0 0 0 0 0 0 0 -0 0 0 0 -0 0 0 0 0 0 0 0 0 0 -0 0 0 -0 -0 -0 0 -0 0 0 0 -0 -0 0 0 -0 0 0 0
0 0 0 0 0 0 0 0 0 0 0 0 0 -0 0 0 0 0 -0 -0 -0 0 0 0 -0 0 0 0 0 0 0 0 -0 -0 -0 -0 0 -0 0 0 -0 0 -0 -0 -0 0 -0 -0 0
0 0 0 0 0 0 0 0 0 0 -0 0 0 0 0 -0 0 -0 -0 0 0 0 0 -0 -0 0 0 0 0 0 -0 -0 -0 -0 0 -0 -0 0 0 -0 -0 -0 -0 -0 -0 -0 -0 -0 -0
0 0 0 0 0 0 0 0 0 0 0 -0 0 0 -0 -0 -0 -0 0 0 0 -0 -0 -0 -0 0 -0 0 0 -0 -0 -0 0 0 -0 -0 -0 -0 -0 0 -0 -0 -0 -0 -0 -0 -0 0 0
0 0 0 0 0 0 0 0 0 0 0 0 0 0 -0 -0 0 0 0 -0 -0 -0 -0 -0 -0 0 0 0 0 -0 0 0 -0 -0 -0 -0 -0 -0 0 -0 -0 0 0 -0 -0 -0 -0 0 0
0 0 0 0 0 0 0 0 0 0 0 0 0 0 -0 -0 0 -0 0 -0 0 -0 -0 -0 -0 0 0 -0 -0 -0 -0 -0 -0 -0 -0 -0 -0 -0 -0 -0 -0 -0 0 -0 -0 -0 -0 0 0
0 0 0 0 0 0 0 0 0 0 0 0 0 -0 -0 -0 -0 -0 -0 0 -0 -0 -0 -0 -0 -0 -0 -0 -0 -0 -0 -0 -0 -0 -0 0 -0 -0 0 0 0 -0 0 0 -0 -0 -0 -0 -0
0 0 0 0 0 0 0 0 0 0 0 0 0 -0 -0 -0 -0 -0 0 0 0 -0 -0 -0 -0 -0 -0 -0 -0 -0 -0 -0 -0 -0 -0 0 -0 -0 0 0 0 0 -0 0 0 0 -0 -0 -0
-0 0 0 0 0 0 0 0 0 0 0 0 0 0 -0 -0 -0 -0 0 0 0 -0 -0 -0 -0 -0 -0 -0 -0 -0 -0 -0 -0 0 0 -0 0 -0 -0 -0 -0 -0 0 -0 -0 -0 -0 -0 -0
-0 0 0 0 0 0 0 0 0 0 0 0 -0 0 -0 -0 -0 -0 -0 0 0 -0 -0 0 -0 -0 -0 -0 -0 -0 -0 -0 -0 -0 0 0 0 -0 -0 0 0 -0 -0 0 0 0 -0 0 -0
-0 -0 -0 0 -0 -0 0 0 0 0 0 0 0 0 0 -0 -0 -0 0 0 0 -0 0 0 0 0 0 -0 -0 -0 0 -0 -0 0 0 0 -0 0 -0 -0 -0 0 0 -0 -0 0 0 0 0
-0 0 0 0 -0 0 -0 0 0 0 0 0 0 0 0 0 -0 -0 -0 0 0 -0 0 0 0 0 0 -0 -0 -0 -0 0 0 0 0 0 0 0 -0 -0 -0 0 -0 -0 0 0 0 0 0
0 -0 -0 0 0 -0 0 0 0 -0 -0 -0 0 0 0 0 -0 -0 0 0 0 -0 -0 -0 0 0 0 0 0 -0 0 0 0 0 0 0 0 0 0 -0 0 0 -0 0 0 0 0 0 0
0 0 -0 -0 0 -0 -0 -0 -0 -0 0 0 -0 -0 -0 -0 -0 -0 0 0 0 -0 -0 -0 -0 -0 -0 0 0 0 0 0 0 0 0 0 0 0 0 -0 -0 -0 0 0 0 0 0 0 -0
0 0 -0 -0 -0 0 -0 -0 -0 -0 -0 -0 -0 -0 -0 -0 -0 0 0 0 -0 -0 -0 -0 -0 0 -0 0 0 0 0 0 0 0 0 0 0 0 0 0 -0 0 0 0 0 0 -0 -0 -0
0 0 0 -0 0 0 0 -0 0 0 -0 -0 -0 -0 -0 -0 -0 -0 -0 -0 -0 -0 -0 -0 -0 -0 -0 0 0 0 0 0 0 0 0 0 0 0 0 -0 0 0 0 0 0 -0 0 -0 -0
0 0 0 0 0 0 0 0 -0 0 -0 -0 -0 -0 -0 -0 -0 -0 -0 -0 -0 -0 -0 -0 -0 -0 -0 0 0 0 0 0 0 0 0 0 0 0 -0 -0 0 0 0 0 -0 -0 -0 -0 0
0 0 0 0 0 0 0 0 -0 0 -0 -0 -0 -0 -0 -0 -0 -0 -0 -0 -0 -0 -0 -0 -0 0 0 -0 0 0 0 0 0 0 0 0 -0 -0 -0 -0 -0 0 0 -0 -0 -0 -0 -0 0
0 0 0 0 0 0 0 0 -0 0 -0 -0 0 -0 -0 -0 -0 -0 -0 -0 -0 -0 -0 -0 -0 0 0 -0 -0 -0 -0 -0 0 0 0 -0 -0 -0 -0 -0 -0 -0 0 0 0 -0 -0 -0 0
0 0 0 0 0 0 0 0 0 -0 0 0 0 -0 -0 -0 -0 -0 -0 -0 -0 -0 -0 -0 -0 0 -0 -0 -0 -0 -0 -0 -0 -0 0 0 -0 -0 -0 -0 -0 0 0 0 0 0 0 0 0
0 0 0 0 0 0 0 0 0 0 0 -0 0 0 -0 -0 -0 -0 -0 -0 -0 -0 -0 -0 -0 -0 -0 -0 -0 -0 -0 -0 0 -0 0 -0 -0 -0 -0 0 0 0 0 0 0 0 0 0 0
0 0 0 0 0 0 0 0 0 0 0 0 0 0 0 -0 -0 -0 -0 -0 -0 -0 -0 -0 -0 -0 -0 -0 -0 -0 -0 -0 -0 -0 -0 -0 -0 0 0 0 0 0 0 0 0 0 0 0 0
0 0 0 0 0 0 0 0 0 0 -0 0 0 0 0 0 0 0 -0 -0 -0 -0 -0 -0 -0 -0 -0 -0 -0 -0 -0 -0 -0 -0 -0 -0 -0 -0 0 0 0 0 0 0 0 0 0 0 0
0 0 0 0 0 0 0 0 0 0 0 0 0 0 0 0 0 0 0 0 0 0 -0 -0 -0 -0 -0 -0 -0 -0 -0 -0 -0 -0 -0 -0 -0 -0 -0 0 0 0 0 0 0 0 0 0 0
0 0 0 0 0 0 0 0 0 -0 0 0 0 0 0 0 0 0 0 0 0 0 0 0 0 0 -0 -0 -0 -0 -0 -0 -0 -0 0 0 -0 -0 -0 0 0 0 0 0 0 0 0 0 0
Wind_Speed_500mb
21 11 2 2 5 6 4 6 5 8 13 1 26 6 10 11 4 3 46 36 43 45 47 49 43 40 39 38 39 40 41 39 38 35 31 26 21 18 15 15 14 15 14 14 15 15 18 22 28
18 13 3 2 8 7 4 5 8 4 15 32 17 18 11 6 8 35 36 47 44 47 48 46 41 41 42 38 36 37 36 34 33 31 28 22 15 12 11 11 9 10 10 13 16 20 19 22 25
17 9 2 4 5 5 4 5 8 8 23 16 14 23 7 6 25 42 43 49 47 47 44 45 42 41 40 37 38 35 32 29 27 25 23 17 12 10 11 7 6 9 11 14 17 20 19 23 23
10 2 3 7 6 4 7 9 16 14 8 8 24 17 13 4 51 38 47 43 47 46 47 46 44 40 37 34 33 29 25 25 22 19 18 15 12 11 10 5 5 11 12 14 17 20 19 22 21
11 2 6 6 7 5 8 18 25 8 9 18 12 9 15 36 49 52 42 40 41 45 44 44 40 38 35 30 27 24 21 20 20 18 16 14 12 11 9 4 7 12 14 15 16 19 17 16 20
2 1 8 4 6 5 8 26 19 5 9 14 15 23 20 31 60 53 51 45 40 43 42 40 39 37 31 26 24 20 19 18 18 18 17 15 11 11 9 8 9 14 14 17 16 17 18 14 13
3 3 7 5 1 3 8 24 13 11 16 3 34 11 24 45 62 59 51 42 37 37 39 39 36 29 25 23 18 16 18 16 17 15 17 14 12 9 9 13 13 13 14 16 17 15 14 16 14
3 3 6 3 5 8 16 22 23 16 10 39 34 10 18 58 65 55 51 42 37 37 37 34 31 29 26 21 19 15 15 15 15 14 13 11 8 8 11 12 13 14 13 14 16 17 13 11 10
3 5 2 4 10 5 26 9 14 18 34 17 19 20 54 63 59 54 48 45 42 39 34 33 31 25 23 22 20 17 17 16 15 14 12 11 9 7 8 11 13 14 13 14 17 17 13 9 5
4 6 3 4 10 10 25 16 24 13 28 9 20 26 65 67 63 56 53 50 46 44 41 35 30 25 24 20 19 21 17 16 14 14 13 13 11 8 10 11 12 13 15 13 13 17 15 12 8
3 3 5 11 14 28 26 13 20 32 8 31 47 42 71 67 61 58 54 49 43 39 39 37 32 28 24 22 21 20 19 17 14 12 15 13 14 11 9 8 8 9 13 16 14 14 13 11 10
5 5 7 2 14 18 20 25 17 36 13 40 35 42 71 75 70 65 56 48 43 40 38 37 36 32 28 23 20 19 18 15 15 11 13 12 13 8 8 6 4 9 21 20 16 16 16 16 13
3 5 4 8 13 15 19 23 18 42 38 10 47 48 77 71 66 61 50 41 38 37 39 39 35 34 33 26 23 22 17 14 14 10 9 11 8 5 10 8 2 2 22 19 18 18 17 15 17
7 4 8 12 11 11 13 10 31 23 45 28 43 57 82 76 69 61 56 50 45 36 40 37 38 34 37 31 23 21 17 14 16 12 9 7 6 8 10 9 0 6 15 17 16 13 14 24 22
6 7 4 6 8 3 14 6 11 25 32 47 55 66 78 76 70 67 59 55 48 43 41 41 42 39 39 29 23 21 18 18 17 10 15 12 13 10 10 8 7 12 15 15 15 12 11 14 11
6 7 10 4 5 2 4 11 8 22 47 49 61 71 72 73 71 63 56 53 50 46 47 42 44 43 38 31 26 23 23 21 16 14 12 8 10 10 13 13 15 15 17 14 14 12 12 12 14
12 6 1 13 18 6 9 12 15 38 44 48 55 64 67 72 68 64 56 56 51 48 51 53 48 45 41 34 27 29 27 27 20 18 14 13 14 11 12 8 20 21 18 14 12 11 12 11 10
10 8 4 11 5 8 8 18 11 42 47 54 61 63 65 72 75 67 59 58 58 55 51 49 50 47 43 35 34 33 34 33 29 21 14 12 15 7 8 6 17 20 18 16 12 12 10 7 6
2 4 14 18 12 7 16 12 18 37 36 38 46 59 69 72 65 64 69 64 63 61 55 50 50 51 46 41 41 40 36 32 31 23 18 17 10 10 7 8 16 19 16 11 14 14 10 7 8
7 9 14 19 12 8 4 23 9 23 40 57 61 64 77 69 62 69 73 74 70 65 62 57 53 53 53 49 43 43 35 30 26 29 25 23 17 15 9 8 10 14 18 16 13 10 9 9 8
8 9 9 15 3 8 6 17 8 7 30 42 61 80 80 82 72 68 76 79 75 73 70 64 58 54 56 54 51 49 41 35 35 34 29 31 24 18 13 13 9 13 15 15 11 11 12 10 9
8 13 18 4 4 9 6 12 14 4 16 19 54 66 75 82 81 72 70 76 80 78 73 70 66 60 58 57 57 54 44 39 32 31 29 29 31 23 18 19 17 14 17 14 13 15 13 11 12
21 3 1 5 5 8 2 3 15 8 12 19 30 63 73 84 88 80 77 73 75 76 76 71 68 66 60 58 57 52 47 36 30 31 31 36 30 28 25 23 24 18 17 18 15 14 13 14 16
3 10 12 11 7 3 9 9 12 7 12 13 12 52 68 79 81 80 75 70 68 71 72 72 70 63 60 53 57 53 46 37 33 30 30 25 26 24 25 25 21 21 20 18 16 16 17 20 20
12 12 5 7 8 11 7 9 20 10 18 16 24 46 68 78 77 78 79 77 74 71 73 67 67 65 65 52 53 49 50 44 36 29 28 32 30 28 29 26 25 20 19 20 18 19 20 20 19
2 12 11 13 7 10 7 11 10 8 29 28 14 28 59 72 73 76 80 79 77 75 72 73 70 63 69 59 52 49 49 48 42 34 28 28 28 28 27 31 30 24 26 22 19 19 20 21 22
4 2 6 14 7 6 9 14 18 11 18 29 14 16 46 64 70 72 75 81 81 76 77 74 75 65 67 65 57 53 50 52 48 42 36 30 27 26 31 38 37 32 32 24 21 21 20 22 21
11 3 5 8 7 2 9 9 10 29 41 24 17 7 13 39 57 63 69 75 83 78 75 69 71 65 60 64 64 57 52 52 53 48 44 41 35 33 33 40 43 41 35 29 25 23 23 23 23
11 8 12 10 6 10 3 11 7 13 19 20 14 11 5 14 34 55 64 66 70 74 76 75 68 70 67 66 63 64 59 55 55 55 50 45 43 41 38 33 36 40 36 32 27 26 26 26 26
3 5 7 9 4 1 5 11 3 5 14 21 23 27 17 6 12 23 44 51 57 65 72 75 77 70 64 62 65 66 63 60 59 60 58 54 50 47 43 40 39 38 37 35 31 29 28 29 29
Wind_Direction_500mb
153 156 112 308 75 72 40 27 51 104 140 179 137 130 140 61 32 165 139 150 149 148 144 145 146 142 138 135 138 141 144 144 147 147 145 140 137 128 110 113 126 120 110 100 96 97 116 125 118
129 126 67 315 76 58 353 64 110 98 132 123 72 116 97 86 90 139 141 150 149 146 143 146 146 145 145 140 136 138 140 144 149 152 146 147 155 135 113 113 126 122 116 110 106 118 121 127 120
115 87 38 74 96 73 75 105 129 105 136 129 132 88 78 84 128 137 147 148 149 146 143 142 146 148 149 147 142 146 144 150 153 157 154 155 163 157 141 121 102 104 119 123 118 125 126 130 130
135 114 48 74 39 94 107 128 129 137 126 81 124 77 84 134 139 143 148 147 144 142 142 144 147 147 148 146 146 151 158 160 160 165 157 156 159 166 152 143 104 103 109 115 128 131 127 130 135
154 109 50 45 16 48 81 122 147 138 133 134 137 104 95 134 146 144 147 148 152 151 151 150 151 153 150 150 150 155 165 168 168 177 177 175 177 171 157 161 133 118 120 122 131 136 134 128 127
44 265 59 24 4 46 97 147 151 110 105 136 100 104 123 145 151 150 153 165 166 161 158 156 158 157 153 159 161 159 172 166 173 181 185 181 178 174 172 165 148 130 126 130 136 153 152 148 145
170 75 143 124 200 279 159 161 156 138 120 154 138 95 135 157 157 154 158 168 164 168 165 166 163 163 165 167 164 170 170 170 173 162 172 175 190 199 184 164 151 141 129 139 145 157 172 173 172
192 110 87 142 196 273 151 159 175 131 59 135 132 128 162 168 168 169 169 168 167 172 175 173 177 179 175 167 173 170 163 167 164 174 179 182 181 196 185 170 157 146 142 144 149 161 178 186 184
252 56 60 205 150 221 142 139 135 130 134 146 156 146 168 164 169 168 169 171 174 175 174 177 181 180 180 178 167 168 169 157 163 162 162 150 148 192 199 182 169 158 154 154 158 169 176 197 166
224 84 313 317 188 171 158 146 135 123 150 189 178 131 162 167 171 175 178 180 181 181 182 184 184 185 185 176 172 175 165 167 167 150 156 148 153 163 183 186 176 174 167 169 167 174 182 178 163
327 127 195 356 75 143 154 130 149 125 189 205 185 163 171 174 179 181 182 186 184 183 186 188 187 185 182 174 181 174 171 171 160 158 162 165 180 163 155 165 160 183 189 169 169 179 190 185 178
356 322 281 64 78 127 145 166 177 175 196 219 203 188 182 182 185 188 188 188 190 190 191 188 187 186 177 177 174 172 169 158 152 160 174 179 184 170 193 192 227 256 197 187 173 174 194 192 195
136 304 40 316 113 130 150 171 181 205 212 261 202 195 189 191 190 193 190 185 188 194 195 190 189 185 178 180 173 179 179 177 169 170 170 196 215 262 241 216 251 296 182 187 191 201 210 216 221
29 312 283 282 243 155 137 153 177 222 219 205 192 196 193 195 197 194 195 192 193 189 187 185 185 185 188 193 190 191 189 183 193 213 220 218 221 260 279 229 315 189 195 199 199 191 216 232 239
344 345 355 222 295 289 126 92 230 228 205 187 190 195 196 200 200 203 201 198 194 193 192 189 185 185 187 192 196 207 204 208 203 224 248 265 278 268 280 265 213 204 192 198 205 233 232 235 237
36 16 20 297 322 296 102 253 240 183 178 178 184 187 194 200 206 208 209 206 203 202 205 201 201 200 202 204 209 215 220 216 221 224 237 256 270 279 283 260 215 204 207 218 209 212 221 223 245
12 280 155 309 207 259 186 260 191 173 172 169 180 188 196 203 211 216 212 210 208 207 212 213 210 212 213 216 217 224 227 232 236 234 252 262 272 292 299 230 197 197 199 202 212 231 243 244 254
270 310 214 242 245 205 260 266 167 178 173 182 182 189 198 206 215 218 220 218 220 221 220 221 221 222 220 227 228 229 229 233 239 237 238 278 255 276 312 203 191 193 197 206 215 225 236 235 234
322 223 272 276 207 227 233 267 200 181 188 189 181 194 199 213 214 215 221 222 225 229 225 224 224 227 224 227 229 227 233 242 243 233 244 240 244 257 272 204 181 187 185 199 211 207 216 219 231
190 260 255 283 202 191 303 254 217 186 210 193 185 195 207 212 212 215 219 224 225 224 226 226 229 229 229 231 234 232 237 248 240 237 236 243 242 228 239 198 177 194 190 187 190 211 228 237 243
226 208 238 212 28 223 10 307 281 211 212 202 197 206 206 208 209 212 221 224 226 231 230 228 227 232 233 234 233 232 234 241 236 227 237 230 224 226 229 209 186 190 194 199 211 218 223 231 235
282 199 251 245 57 239 75 283 314 326 251 210 197 198 206 210 214 214 219 227 227 229 234 234 232 231 233 234 232 231 234 237 245 234 226 221 230 224 222 202 208 201 212 222 228 228 238 243 254
236 123 101 177 141 20 214 37 267 346 295 252 206 201 204 215 215 216 221 226 231 233 235 236 235 229 228 230 228 230 234 241 254 243 229 242 225 228 215 205 208 220 225 229 234 239 241 241 250
3 94 57 52 80 63 243 142 287 261 251 289 204 204 200 212 218 221 225 227 230 235 236 234 232 224 221 224 224 227 230 231 236 228 225 228 210 211 212 199 199 210 227 230 237 233 235 243 255
73 59 348 356 9 215 36 72 246 260 287 251 265 209 201 211 216 218 221 226 230 231 233 228 227 226 219 222 222 228 229 228 232 232 234 225 219 216 212 212 212 221 224 237 240 240 242 248 259
106 153 156 185 201 259 154 232 245 226 333 351 336 222 204 204 216 221 223 226 228 230 231 231 226 224 222 222 220 225 228 227 229 230 227 223 229 226 223 219 217 226 235 245 239 245 251 259 265
314 29 179 101 12 56 297 297 312 317 359 356 0 183 197 203 211 221 224 227 226 228 230 229 226 225 225 225 223 223 225 225 225 226 226 224 230 228 228 227 229 234 237 240 243 251 260 264 264
84 167 21 0 129 171 307 295 254 334 322 330 321 248 210 214 217 224 225 227 228 227 231 229 229 229 228 227 227 227 228 226 226 226 227 223 222 223 226 227 232 232 230 232 241 253 268 268 267
357 14 52 116 92 151 169 266 223 289 305 322 354 63 194 221 218 223 229 230 232 228 228 227 223 232 230 230 230 231 231 231 230 230 231 228 224 222 220 223 217 216 223 234 246 256 268 267 269
346 59 115 108 247 99 143 270 255 357 340 355 6 45 58 94 205 217 221 224 225 227 229 226 221 228 231 234 236 235 235 235 234 234 234 232 228 225 227 223 220 221 225 234 245 253 265 267 267
Wind_Speed_850mb
21 11 2 2 5 6 4 6 5 8 13 1 26 6 10 11 4 3 46 36 43 45 47 49 43 40 39 38 39 40 41 39 38 35 31 26 21 18 15 15 14 15 14 14 15 15 18 22 28
18 13 3 2 8 7 4 5 8 4 15 32 17 18 11 6 8 35 36 47 44 47 48 46 41 41 42 38 36 37 36 34 33 31 28 22 15 12 11 11 9 10 10 13 16 20 19 22 25
17 9 2 4 5 5 4 5 8 8 23 16 14 23 7 6 25 42 43 49 47 47 44 45 42 41 40 37 38 35 32 29 27 25 23 17 12 10 11 7 6 9 11 14 17 20 19 23 23
10 2 3 7 6 4 7 9 16 14 8 8 24 17 13 4 51 38 47 43 47 46 47 46 44 40 37 34 33 29 25 25 22 19 18 15 12 11 10 5 5 11 12 14 17 20 19 22 21
11 2 6 6 7 5 8 18 25 8 9 18 12 9 15 36 49 52 42 40 41 45 44 44 40 38 35 30 27 24 21 20 20 18 16 14 12 11 9 4 7 12 14 15 16 19 17 16 20
2 1 8 4 6 5 8 26 19 5 9 14 15 23 20 31 60 53 51 45 40 43 42 40 39 37 31 26 24 20 19 18 18 18 17 15 11 11 9 8 9 14 14 17 16 17 18 14 13
3 3 7 5 1 3 8 24 13 11 16 3 34 11 24 45 62 59 51 42 37 37 39 39 36 29 25 23 18 16 18 16 17 15 17 14 12 9 9 13 13 13 14 16 17 15 14 16 14
3 3 6 3 5 8 16 22 23 16 10 39 34 10 18 58 65 55 51 42 37 37 37 34 31 29 26 21 19 15 15 15 15 14 13 11 8 8 11 12 13 14 13 14 16 17 13 11 10
3 5 2 4 10 5 26 9 14 18 34 17 19 20 54 63 59 54 48 45 42 39 34 33 31 25 23 22 20 17 17 16 15 14 12 11 9 7 8 11 13 14 13 14 17 17 13 9 5
4 6 3 4 10 10 25 16 24 13 28 9 20 26 65 67 63 56 53 50 46 44 41 35 30 25 24 20 19 21 17 16 14 14 13 13 11 8 10 11 12 13 15 13 13 17 15 12 8
3 3 5 11 14 28 26 13 20 32 8 31 47 42 71 67 61 58 54 49 43 39 39 37 32 28 24 22 21 20 19 17 14 12 15 13 14 11 9 8 8 9 13 16 14 14 13 11 10
5 5 7 2 14 18 20 25 17 36 13 40 35 42 71 75 70 65 56 48 43 40 38 37 36 32 28 23 20 19 18 15 15 11 13 12 13 8 8 6 4 9 21 20 16 16 16 16 13
3 5 4 8 13 15 19 23 18 42 38 10 47 48 77 71 66 61 50 41 38 37 39 39 35 34 33 26 23 22 17 14 14 10 9 11 8 5 10 8 2 2 22 19 18 18 17 15 17
7 4 8 12 11 11 13 10 31 23 45 28 43 57 82 76 69 61 56 50 45 36 40 37 38 34 37 31 23 21 17 14 16 12 9 7 6 8 10 9 0 6 15 17 16 13 14 24 22
6 7 4 6 8 3 14 6 11 25 32 47 55 66 78 76 70 67 59 55 48 43 41 41 42 39 39 29 23 21 18 18 17 10 15 12 13 10 10 8 7 12 15 15 15 12 11 14 11
6 7 10 4 5 2 4 11 8 22 47 49 61 71 72 73 71 63 56 53 50 46 47 42 44 43 38 31 26 23 23 21 16 14 12 8 10 10 13 13 15 15 17 14 14 12 12 12 14
12 6 1 13 18 6 9 12 15 38 44 48 55 64 67 72 68 64 56 56 51 48 51 53 48 45 41 34 27 29 27 27 20 18 14 13 14 11 12 8 20 21 18 14 12 11 12 11 10
10 8 4 11 5 8 8 18 11 42 47 54 61 63 65 72 75 67 59 58 58 55 51 49 50 47 43 35 34 33 34 33 29 21 14 12 15 7 8 6 17 20 18 16 12 12 10 7 6
2 4 14 18 12 7 16 12 18 37 36 38 46 59 69 72 65 64 69 64 63 61 55 50 50 51 46 41 41 40 36 32 31 23 18 17 10 10 7 8 16 19 16 11 14 14 10 7 8
7 9 14 19 12 8 4 23 9 23 40 57 61 64 77 69 62 69 73 74 70 65 62 57 53 53 53 49 43 43 35 30 26 29 25 23 17 15 9 8 10 14 18 16 13 10 9 9 8
8 9 9 15 3 8 6 17 8 7 30 42 61 80 80 82 72 68 76 79 75 73 70 64 58 54 56 54 51 49 41 35 35 34 29 31 24 18 13 13 9 13 15 15 11 11 12 10 9
8 13 18 4 4 9 6 12 14 4 16 19 54 66 75 82 81 72 70 76 80 78 73 70 66 60 58 57 57 54 44 39 32 31 29 29 31 23 18 19 17 14 17 14 13 15 13 11 12
21 3 1 5 5 8 2 3 15 8 12 19 30 63 73 84 88 80 77 73 75 76 76 71 68 66 60 58 57 52 47 36 30 31 31 36 30 28 25 23 24 18 17 18 15 14 13 14 16
3 10 12 11 7 3 9 9 12 7 12 13 12 52 68 79 81 80 75 70 68 71 72 72 70 63 60 53 57 53 46 37 33 30 30 25 26 24 25 25 21 21 20 18 16 16 17 20 20
12 12 5 7 8 11 7 9 20 10 18 16 24 46 68 78 77 78 79 77 74 71 73 67 67 65 65 52 53 49 50 44 36 29 28 32 30 28 29 26 25 20 19 20 18 19 20 20 19
2 12 11 13 7 10 7 11 10 8 29 28 14 28 59 72 73 76 80 79 77 75 72 73 70 63 69 59 52 49 49 48 42 34 28 28 28 28 27 31 30 24 26 22 19 19 20 21 22
4 2 6 14 7 6 9 14 18 11 18 29 14 16 46 64 70 72 75 81 81 76 77 74 75 65 67 65 57 53 50 52 48 42 36 30 27 26 31 38 37 32 32 24 21 21 20 22 21
11 3 5 8 7 2 9 9 10 29 41 24 17 7 13 39 57 63 69 75 83 78 75 69 71 65 60 64 64 57 52 52 53 48 44 41 35 33 33 40 43 41 35 29 25 23 23 23 23
11 8 12 10 6 10 3 11 7 13 19 20 14 11 5 14 34 55 64 66 70 74 76 75 68 70 67 66 63 64 59 55 55 55 50 45 43 41 38 33 36 40 36 32 27 26 26 26 26
3 5 7 9 4 1 5 11 3 5 14 21 23 27 17 6 12 23 44 51 57 65 72 75 77 70 64 62 65 66 63 60 59 60 58 54 50 47 43 40 39 38 37 35 31 29 28 29 29
Wind_Direction_850mb
153 156 112 308 75 72 40 27 51 104 140 179 137 130 140 61 32 165 139 150 149 148 144 145 146 142 138 135 138 141 144 144 147 147 145 140 137 128 110 113 126 120 110 100 96 97 116 125 118
129 126 67 315 76 58 353 64 110 98 132 123 72 116 97 86 90 139 141 150 149 146 143 146 146 145 145 140 136 138 140 144 149 152 146 147 155 135 113 113 126 122 116 110 106 118 121 127 120
115 87 38 74 96 73 75 105 129 105 136 129 132 88 78 84 128 137 147 148 149 146 143 142 146 148 149 147 142 146 144 150 153 157 154 155 163 157 141 121 102 104 119 123 118 125 126 130 130
135 114 48 74 39 94 107 128 129 137 126 81 124 77 84 134 139 143 148 147 144 142 142 144 147 147 148 146 146 151 158 160 160 165 157 156 159 166 152 143 104 103 109 115 128 131 127 130 135
154 109 50 45 16 48 81 122 147 138 133 134 137 104 95 134 146 144 147 148 152 151 151 150 151 153 150 150 150 155 165 168 168 177 177 175 177 171 157 161 133 118 120 122 131 136 134 128 127
44 265 59 24 4 46 97 147 151 110 105 136 100 104 123 145 151 150 153 165 166 161 158 156 158 157 153 159 161 159 172 166 173 181 185 181 178 174 172 165 148 130 126 130 136 153 152 148 145
170 75 143 124 200 279 159 161 156 138 120 154 138 95 135 157 157 154 158 168 164 168 165 166 163 163 165 167 164 170 170 170 173 162 172 175 190 199 184 164 151 141 129 139 145 157 172 173 172
192 110 87 142 196 273 151 159 175 131 59 135 132 128 162 168 168 169 169 168 167 172 175 173 177 179 175 167 173 170 163 167 164 174 179 182 181 196 185 170 157 146 142 144 149 161 178 186 184
252 56 60 205 150 221 142 139 135 130 134 146 156 146 168 164 169 168 169 171 174 175 174 177 181 180 180 178 167 168 169 157 163 162 162 150 148 192 199 182 169 158 154 154 158 169 176 197 166
224 84 313 317 188 171 158 146 135 123 150 189 178 131 162 167 171 175 178 180 181 181 182 184 184 185 185 176 172 175 165 167 167 150 156 148 153 163 183 186 176 174 167 169 167 174 182 178 163
327 127 195 356 75 143 154 130 149 125 189 205 185 163 171 174 179 181 182 186 184 183 186 188 187 185 182 174 181 174 171 171 160 158 162 165 180 163 155 165 160 183 189 169 169 179 190 185 178
356 322 281 64 78 127 145 166 177 175 196 219 203 188 182 182 185 188 188 188 190 190 191 188 187 186 177 177 174 172 169 158 152 160 174 179 184 170 193 192 227 256 197 187 173 174 194 192 195
136 304 40 316 113 130 150 171 181 205 212 261 202 195 189 191 190 193 190 185 188 194 195 190 189 185 178 180 173 179 179 177 169 170 170 196 215 262 241 216 251 296 182 187 191 201 210 216 221
29 312 283 282 243 155 137 153 177 222 219 205 192 196 193 195 197 194 195 192 193 189 187 185 185 185 188 193 190 191 189 183 193 213 220 218 221 260 279 229 315 189 195 199 199 191 216 232 239
344 345 355 222 295 289 126 92 230 228 205 187 190 195 196 200 200 203 201 198 194 193 192 189 185 185 187 192 196 207 204 208 203 224 248 265 278 268 280 265 213 204 192 198 205 233 232 235 237
36 16 20 297 322 296 102 253 240 183 178 178 184 187 194 200 206 208 209 206 203 202 205 201 201 200 202 204 209 215 220 216 221 224 237 256 270 279 283 260 215 204 207 218 209 212 221 223 245
12 280 155 309 207 259 186 260 191 173 172 169 180 188 196 203 211 216 212 210 208 207 212 213 210 212 213 216 217 224 227 232 236 234 252 262 272 292 299 230 197 197 199 202 212 231 243 244 254
270 310 214 242 245 205 260 266 167 178 173 182 182 189 198 206 215 218 220 218 220 221 220 221 221 222 220 227 228 229 229 233 239 237 238 278 255 276 312 203 191 193 197 206 215 225 236 235 234
322 223 272 276 207 227 233 267 200 181 188 189 181 194 199 213 214 215 221 222 225 229 225 224 224 227 224 227 229 227 233 242 243 233 244 240 244 257 272 204 181 187 185 199 211 207 216 219 231
190 260 255 283 202 191 303 254 217 186 210 193 185 195 207 212 212 215 219 224 225 224 226 226 229 229 229 231 234 232 237 248 240 237 236 243 242 228 239 198 177 194 190 187 190 211 228 237 243
226 208 238 212 28 223 10 307 281 211 212 202 197 206 206 208 209 212 221 224 226 231 230 228 227 232 233 234 233 232 234 241 236 227 237 230 224 226 229 209 186 190 194 199 211 218 223 231 235
282 199 251 245 57 239 75 283 314 326 251 210 197 198 206 210 214 214 219 227 227 229 234 234 232 231 233 234 232 231 234 237 245 234 226 221 230 224 222 202 208 201 212 222 228 228 238 243 254
236 123 101 177 141 20 214 37 267 346 295 252 206 201 204 215 215 216 221 226 231 233 235 236 235 229 228 230 228 230 234 241 254 243 229 242 225 228 215 205 208 220 225 229 234 239 241 241 250
3 94 57 52 80 63 243 142 287 261 251 289 204 204 200 212 218 221 225 227 230 235 236 234 232 224 221 224 224 227 230 231 236 228 225 228 210 211 212 199 199 210 227 230 237 233 235 243 255
73 59 348 356 9 215 36 72 246 260 287 251 265 209 201 211 216 218 221 226 230 231 233 228 227 226 219 222 222 228 229 228 232 232 234 225 219 216 212 212 212 221 224 237 240 240 242 248 259
106 153 156 185 201 259 154 232 245 226 333 351 336 222 204 204 216 221 223 226 228 230 231 231 226 224 222 222 220 225 228 227 229 230 227 223 229 226 223 219 217 226 235 245 239 245 251 259 265
314 29 179 101 12 56 297 297 312 317 359 356 0 183 197 203 211 221 224 227 226 228 230 229 226 225 225 225 223 223 225 225 225 226 226 224 230 228 228 227 229 234 237 240 243 251 260 264 264
84 167 21 0 129 171 307 295 254 334 322 330 321 248 210 214 217 224 225 227 228 227 231 229 229 229 228 227 227 227 228 226 226 226 227 223 222 223 226 227 232 232 230 232 241 253 268 268 267
357 14 52 116 92 151 169 266 223 289 305 322 354 63 194 221 218 223 229 230 232 228 228 227 223 232 230 230 230 231 231 231 230 230 231 228 224 222 220 223 217 216 223 234 246 256 268 267 269
346 59 115 108 247 99 143 270 255 357 340 355 6 45 58 94 205 217 221 224 225 227 229 226 221 228 231 234 236 235 235 235 234 234 234 232 228 225 227 223 220 221 225 234 245 253 265 267 267